[[{"header":{"parameterUnit":"m.s-1","parameterCategory":1,"la1":30.2991,"la2":30.254,"lo1":-89.0895,"lo2":-89.0444,"dy":0.0017,"dx":0.0017,"nx":28,"ny":28,"refTime":"2025-01-07T03:00:00:Z","depth":0,"parameterNumber":2,"parameterNumberName":"U-component_of_WINDS"},"data":[0,0,0,0,0,0,0,0,0,0,0,0,0,0,0,0,0,0,0,0,0,0,0,0,0,0,0,0,0,0,0,0,0,0,0,0,0,0,0,0,0,0,0,0,0,0,0,0,0,0,0,0,0,0,0,0,0,0,0.2405,0.2404,0,0.2359,0.2358,0.2358,0.2365,0.2366,0.2367,0.2368,0.2318,0.2316,0.2314,0,0,0,0,0,0,0,0,0,0,0,0,0,0.2497,0.2495,0.2405,0.2404,0.2403,0.2359,0.2358,0.2358,0.2365,0.2366,0.2367,0.2368,0.2319,0.2316,0.2314,0,0,0,0,0,0,0,0,0,0,0,0,0,0.2454,0.2495,0.2405,0.2402,0.2401,0.2359,0.2358,0.2358,0.2365,0.2366,0.2367,0.2369,0.232,0.2317,0.2314,0.2271,0,0,0.2304,0.2303,0,0,0,0,0,0,0,0,0.2457,0.2451,0.2403,0.2402,0.2401,0.2369,0.2373,0.2328,0.2365,0.2379,0.2368,0.2369,0.2334,0.233,0.2318,0.2268,0.2266,0.2304,0.2302,0.2301,0.23,0,0,0,0,0,0,0,0.246,0.2453,0.2386,0.2402,0.2401,0.2402,0.2398,0.2364,0.235,0.2378,0.2378,0.2373,0.2334,0.2321,0.2317,0.2265,0.2304,0.2301,0.2299,0.2298,0.2178,0.2177,0,0,0,0,0,0,0.2464,0.2455,0.2388,0.2385,0.2433,0.24,0.2395,0.2378,0.235,0.2347,0.2372,0.2373,0.2326,0.2321,0.2316,0.2263,0.2301,0.2298,0.2296,0.218,0.2178,0.2177,0,0,0,0,0,0,0.2466,0.2458,0.239,0.242,0.2412,0.2397,0.2378,0.2377,0.2364,0.2346,0.2343,0.2362,0.2327,0.232,0.2282,0.2262,0.2296,0.2294,0.2181,0.2179,0.2177,0.2159,0,0,0,0,0,0,0.2468,0.2458,0.2442,0.242,0.241,0.2357,0.2377,0.2375,0.2359,0.2361,0.2336,0.2333,0.2327,0.2287,0.2279,0.2258,0.2291,0.2183,0.218,0.2178,0.2161,0.2156,0.2152,0,0,0,0,0,0.2472,0.2438,0.2441,0.2433,0.239,0.2356,0.235,0.2345,0.2358,0.2341,0.233,0.2334,0.2266,0.2283,0.2274,0.2252,0.2184,0.2181,0.2178,0.2163,0.2157,0.2153,0,0,0,0,0,0,0.2456,0.2435,0.2438,0.2396,0.2378,0.2357,0.2336,0.2339,0.2316,0.2318,0.2312,0.2306,0.2268,0.2257,0.2276,0.221,0.2227,0.2222,0.2218,0.2212,0.2208,0.2211,0.2289,0,0,0,0,0,0.2449,0.2424,0.2406,0.2371,0.2362,0.2351,0.2336,0.2334,0.2314,0.2306,0.2291,0.2272,0.2246,0.2229,0.2204,0.216,0.2155,0.2141,0.2137,0.2133,0.2129,0.2105,0.2098,0.2167,0.2167,0.2167,0,0,0.2431,0.2417,0.2401,0.2368,0.2353,0.2327,0.2344,0.2315,0.2296,0.2301,0.2264,0.2254,0.2231,0.219,0.2171,0.2179,0.2109,0.2129,0.2127,0.2124,0.2101,0.2095,0.2089,0.2165,0.2165,0.2166,0,0,0.2386,0.2373,0.2342,0.2328,0.2307,0.23,0.2293,0.2272,0.2265,0.2228,0.2232,0.2209,0.2165,0.2149,0.2135,0.2086,0.2089,0.2078,0.2055,0.2032,0.2026,0.2021,0.2004,0.1997,0.2074,0.2074,0.2074,0,0.2367,0.2329,0.2326,0.2297,0.2283,0.2288,0.2257,0.2243,0.2214,0.2203,0.2213,0.2159,0.2144,0.2099,0.2088,0.2077,0.2068,0.208,0.2027,0.2023,0.2018,0.2001,0.1994,0.2073,0.2073,0.2073,0.2073,0,0.2306,0.2279,0.2257,0.2231,0.2213,0.2184,0.2176,0.2159,0.2159,0.2151,0.2114,0.2097,0.207,0.2059,0.2058,0.2015,0.202,0.2029,0.2046,0.201,0.1994,0.1987,0.2071,0.2071,0.2072,0.2072,0,0,0.2248,0.2222,0.2213,0.2202,0.2179,0.2158,0.2129,0.2103,0.2089,0.2069,0.2044,0.2008,0.2016,0.2,0.1998,0.1978,0.194,0.1989,0.1988,0.198,0.1891,0.1884,0.1876,0.1943,0.1942,0.1941,0.1893,0,0.22,0.2149,0.2147,0.21,0.2076,0.2082,0.2056,0.204,0.2032,0.201,0.2001,0.1975,0.1988,0.1979,0.196,0.1949,0.1922,0.1953,0.1919,0.1918,0.1923,0.1868,0.186,0.1815,0.1887,0.1886,0.1885,0,0.2137,0.2117,0.2068,0.205,0.204,0.2017,0.1994,0.1973,0.1954,0.195,0.1934,0.1935,0.1905,0.1924,0.1883,0.1904,0.189,0.1883,0.1881,0.1876,0.1898,0.1861,0.1801,0.1794,0.1875,0.1876,0.1876,0,0.2099,0.2059,0.2025,0.2015,0.1994,0.1978,0.1968,0.1951,0.1936,0.1915,0.1906,0.1882,0.1868,0.185,0.1844,0.1859,0.1803,0.1822,0.1798,0.1798,0.1784,0.1785,0.172,0.1777,0.1778,0.1778,0.1778,0,0.2045,0.2014,0.2008,0.1987,0.1953,0.1951,0.1918,0.1909,0.1895,0.1872,0.1876,0.1854,0.1849,0.1826,0.1822,0.1788,0.1782,0.1778,0.1776,0.1776,0.1777,0.1766,0.1769,0.1776,0.1776,0.1777,0.1777,0,0.1995,0.199,0.1953,0.1937,0.1932,0.1908,0.1893,0.1873,0.1867,0.1838,0.1831,0.1821,0.1795,0.1788,0.1757,0.1754,0.1714,0.1716,0.172,0.172,0.1696,0.1698,0.1621,0.161,0.1676,0.1675,0.1675,0,0.196,0.1937,0.1919,0.1905,0.1894,0.1871,0.1856,0.1854,0.1838,0.1816,0.1798,0.1773,0.1752,0.171,0.17,0.1676,0.1677,0.1652,0.1673,0.1674,0.1676,0.1676,0.1674,0.1647,0.1646,0.1646,0.1645,0,0.1899,0.1898,0.1877,0.1855,0.1837,0.1819,0.1803,0.179,0.1786,0.1768,0.1742,0.1726,0.1695,0.1669,0.1645,0.1635,0.1639,0.1639,0.1632,0.1631,0.1634,0.1631,0.1708,0.164,0.1641,0.1641,0.1641,0.1642,0.1855,0.1835,0.1819,0.1796,0.1783,0.1768,0.1748,0.1741,0.1719,0.1694,0.1694,0.1665,0.1649,0.1618,0.1606,0.1584,0.1591,0.1581,0.1578,0.1576,0.1573,0.1639,0.1579,0.1579,0.158,0.158,0.158,0,0.1793,0.1784,0.1762,0.1739,0.1721,0.1729,0.1711,0.1694,0.167,0.1654,0.1635,0.1605,0.1581,0.1569,0.1545,0.1529,0.1531,0.1523,0.1524,0.1521,0.1568,0.1576,0.1523,0.1523,0.1523,0.1523,0.1523,0.1523,0.1758,0.1725,0.1723,0.1684,0.1675,0.1647,0.1637,0.1623,0.161,0.1577,0.1558,0.1551,0.1537,0.1513,0.1491,0.1488,0.1479,0.147,0.1468,0.1512,0.1518,0.1523,0.1531,0.1468,0.1468,0.1423,0.1423,0.1422]},{"header":{"parameterUnit":"m.s-1","parameterCategory":1,"la1":30.2991,"la2":30.254,"lo1":-89.0895,"lo2":-89.0444,"dy":0.0017,"dx":0.0017,"nx":28,"ny":28,"refTime":"2025-01-07T03:00:00:Z","depth":0,"parameterNumber":3,"parameterNumberName":"V-component_of_WINDS"},"data":[0,0,0,0,0,0,0,0,0,0,0,0,0,0,0,0,0,0,0,0,0,0,0,0,0,0,0,0,0,0,0,0,0,0,0,0,0,0,0,0,0,0,0,0,0,0,0,0,0,0,0,0,0,0,0,0,0,0,-6.7648,-6.7649,0,-6.7813,-6.7815,-6.7817,-6.7756,-6.7752,-6.7749,-6.7745,-6.791,-6.7918,-6.7926,0,0,0,0,0,0,0,0,0,0,0,0,0,-6.7275,-6.7282,-6.7647,-6.7649,-6.7652,-6.7813,-6.7815,-6.7817,-6.7757,-6.7752,-6.7748,-6.7743,-6.7908,-6.7917,-6.7926,0,0,0,0,0,0,0,0,0,0,0,0,0,-6.7438,-6.7284,-6.7647,-6.7641,-6.7642,-6.7812,-6.7815,-6.7818,-6.7758,-6.7752,-6.7746,-6.7741,-6.7904,-6.7916,-6.7928,-6.8112,0,0,-6.7964,-6.7969,0,0,0,0,0,0,0,0,-6.7429,-6.7452,-6.764,-6.7642,-6.7643,-6.7758,-6.7744,-6.7916,-6.7759,-6.7714,-6.7745,-6.7739,-6.7864,-6.7879,-6.7922,-6.812,-6.8127,-6.7965,-6.7972,-6.7977,-6.798,0,0,0,0,0,0,0,-6.7417,-6.7444,-6.7713,-6.7642,-6.7645,-6.7628,-6.7645,-6.7776,-6.7818,-6.7717,-6.7713,-6.7734,-6.7864,-6.7911,-6.7925,-6.8129,-6.7964,-6.7975,-6.7982,-6.7987,-6.8486,-6.8492,0,0,0,0,0,0,-6.7406,-6.7435,-6.7707,-6.7718,-6.752,-6.764,-6.7659,-6.7727,-6.7816,-6.7825,-6.7738,-6.773,-6.7893,-6.7911,-6.7931,-6.8152,-6.7977,-6.7988,-6.7995,-6.848,-6.8487,-6.8494,0,0,0,0,0,0,-6.7398,-6.7431,-6.7701,-6.7575,-6.7609,-6.7652,-6.7729,-6.7733,-6.778,-6.7832,-6.7839,-6.7779,-6.7889,-6.7914,-6.8068,-6.8157,-6.7993,-6.8004,-6.8472,-6.8482,-6.8491,-6.8597,0,0,0,0,0,0,-6.7388,-6.7428,-6.75,-6.7578,-6.7616,-6.7837,-6.7735,-6.774,-6.7801,-6.7792,-6.7872,-6.788,-6.7887,-6.805,-6.8079,-6.817,-6.8013,-6.8465,-6.8477,-6.8488,-6.8586,-6.8609,-6.8628,0,0,0,0,0,-6.7375,-6.7523,-6.7504,-6.7537,-6.7706,-6.7842,-6.7863,-6.787,-6.7808,-6.788,-6.7914,-6.7878,-6.8143,-6.8067,-6.8099,-6.8195,-6.8459,-6.8473,-6.8487,-6.8576,-6.8604,-6.8628,0,0,0,0,0,0,-6.7454,-6.7533,-6.7513,-6.7691,-6.7761,-6.7832,-6.7922,-6.7899,-6.7986,-6.7974,-6.7976,-6.7995,-6.8153,-6.8189,-6.8103,-6.8377,-6.8291,-6.8312,-6.8348,-6.8375,-6.8396,-6.8384,-6.8023,0,0,0,0,0,-6.7492,-6.7597,-6.766,-6.7811,-6.7847,-6.7879,-6.7938,-6.7937,-6.8008,-6.8037,-6.8081,-6.8151,-6.8249,-6.8314,-6.8408,-6.859,-6.8606,-6.8672,-6.8693,-6.8711,-6.8729,-6.8827,-6.8856,-6.854,-6.8539,-6.8539,0,0,-6.7572,-6.7628,-6.7694,-6.7828,-6.7882,-6.7989,-6.7904,-6.8021,-6.81,-6.8054,-6.8202,-6.8237,-6.8314,-6.8483,-6.8559,-6.8518,-6.882,-6.8728,-6.8742,-6.8751,-6.8844,-6.8874,-6.8901,-6.8549,-6.8547,-6.8546,0,0,-6.7772,-6.7826,-6.7957,-6.8013,-6.8095,-6.8116,-6.8147,-6.8222,-6.8244,-6.8393,-6.8361,-6.8453,-6.8624,-6.868,-6.8731,-6.8952,-6.8922,-6.8982,-6.9094,-6.919,-6.9215,-6.9237,-6.9315,-6.9343,-6.9,-6.9,-6.9001,0,-6.7861,-6.8022,-6.8027,-6.8147,-6.8207,-6.8171,-6.8303,-6.8356,-6.8465,-6.8506,-6.8458,-6.8671,-6.872,-6.8901,-6.8955,-6.8998,-6.9032,-6.8973,-6.9211,-6.9233,-6.9254,-6.9328,-6.9358,-6.9007,-6.9006,-6.9006,-6.9005,0,-6.8126,-6.8239,-6.8335,-6.8442,-6.8512,-6.8637,-6.866,-6.873,-6.8722,-6.8747,-6.8898,-6.8956,-6.9061,-6.9104,-6.9097,-6.9284,-6.9255,-6.9209,-6.9123,-6.9291,-6.9361,-6.9389,-6.9017,-6.9015,-6.9013,-6.9011,0,0,-6.8381,-6.849,-6.8525,-6.8573,-6.8661,-6.8747,-6.887,-6.8974,-6.9033,-6.9109,-6.9211,-6.9356,-6.9314,-6.9372,-6.9371,-6.9455,-6.9626,-6.9399,-6.9401,-6.9438,-6.9833,-6.9867,-6.99,-6.9606,-6.9611,-6.9616,-6.9827,0,-6.8588,-6.8806,-6.8814,-6.9012,-6.9115,-6.9083,-6.919,-6.9255,-6.9281,-6.9371,-6.9399,-6.9501,-6.9439,-6.9473,-6.9555,-6.9588,-6.9705,-6.9573,-6.97,-6.9704,-6.9681,-6.9937,-6.9973,-7.0169,-6.9854,-6.9859,-6.9862,0,-6.8859,-6.8945,-6.9154,-6.9227,-6.927,-6.9367,-6.9462,-6.9549,-6.9621,-6.9634,-6.9699,-6.9685,-6.9809,-6.9719,-6.9889,-6.9799,-6.9851,-6.9875,-6.9883,-6.9894,-6.9793,-6.9955,-7.0232,-7.0261,-6.9905,-6.9902,-6.9899,0,-6.9023,-6.9191,-6.9337,-6.9379,-6.9468,-6.9536,-6.9576,-6.9643,-6.9705,-6.9787,-6.9827,-6.9922,-6.9975,-7.0048,-7.006,-6.9994,-7.023,-7.0141,-7.0243,-7.0243,-7.0294,-7.0291,-7.0584,-7.0329,-7.0329,-7.0328,-7.0328,0,-6.9253,-6.9382,-6.9412,-6.9502,-6.9645,-6.9652,-6.9793,-6.9827,-6.9887,-6.9982,-6.9959,-7.0048,-7.0059,-7.0151,-7.016,-7.0299,-7.0323,-7.0336,-7.0337,-7.0338,-7.0336,-7.0372,-7.0358,-7.0336,-7.0334,-7.0333,-7.0331,0,-6.9461,-6.9487,-6.9644,-6.9715,-6.9736,-6.9839,-6.9899,-6.9984,-7.0008,-7.0128,-7.0157,-7.0193,-7.03,-7.032,-7.0445,-7.0451,-7.0617,-7.0604,-7.0593,-7.0591,-7.0692,-7.0682,-7.1017,-7.1061,-7.0779,-7.0781,-7.0784,0,-6.9606,-6.9705,-6.9787,-6.985,-6.9894,-6.9995,-7.0058,-7.0067,-7.0134,-7.0223,-7.0297,-7.0402,-7.0486,-7.0658,-7.0694,-7.079,-7.0779,-7.089,-7.0793,-7.0791,-7.078,-7.0774,-7.0783,-7.0908,-7.0911,-7.0914,-7.0916,0,-6.9861,-6.9868,-6.9961,-7.0058,-7.0134,-7.0211,-7.0283,-7.0335,-7.0354,-7.043,-7.0539,-7.0605,-7.0733,-7.0837,-7.0932,-7.097,-7.0947,-7.0946,-7.0975,-7.0976,-7.0966,-7.0972,-7.0643,-7.0938,-7.0936,-7.0934,-7.0933,-7.0932,-7.0041,-7.0127,-7.0199,-7.0302,-7.0358,-7.0426,-7.051,-7.0544,-7.0636,-7.0743,-7.0742,-7.0862,-7.093,-7.1055,-7.1101,-7.1193,-7.1157,-7.1199,-7.1209,-7.1219,-7.1229,-7.0952,-7.121,-7.121,-7.1209,-7.1209,-7.1208,0,-7.0294,-7.0338,-7.0434,-7.0536,-7.0617,-7.0589,-7.0667,-7.0737,-7.0843,-7.0909,-7.0993,-7.1118,-7.1218,-7.1263,-7.1361,-7.1427,-7.1418,-7.1452,-7.1447,-7.1456,-7.1255,-7.1221,-7.1457,-7.1457,-7.1457,-7.1457,-7.1457,-7.1457,-7.0435,-7.0579,-7.0595,-7.0765,-7.0808,-7.0926,-7.0973,-7.1035,-7.1089,-7.123,-7.1314,-7.1343,-7.14,-7.1502,-7.1592,-7.1603,-7.1639,-7.1679,-7.1684,-7.1495,-7.147,-7.1446,-7.1413,-7.1687,-7.1687,-7.1877,-7.1879,-7.188]}]]